This is the latest recevied weather packets stored in our database for station/object WX1NWA. If no packets are shown the sender has not sent any weather packets the latest 10 day(s).
| Time | Temp. | Humidity | Pressure | Rain* | Wind** | Luminosity | Snow |
|---|---|---|---|---|---|---|---|
| 1777858605 | 19.44° C | 56% | 1016.9 hPa | 0 mm | - | 0 W/m² | - |
| 1777858302 | 19.44° C | 55% | 1017 hPa | 0 mm | - | 0 W/m² | - |
| 1777857999 | 19.44° C | 55% | 1016.8 hPa | 0 mm | - | 0 W/m² | - |
| 1777857697 | 20° C | 55% | 1016.8 hPa | 0 mm | - | 0 W/m² | - |
| 1777857393 | 20° C | 55% | 1017.1 hPa | 0 mm | - | 0 W/m² | - |
| 1777857090 | 19.44° C | 56% | 1016.8 hPa | 0 mm | - | 0 W/m² | - |
| 1777856786 | 19.44° C | 56% | 1017 hPa | 0 mm | - | 0 W/m² | - |
| 1777856482 | 19.44° C | 57% | 1017 hPa | 0 mm | - | 0 W/m² | - |
| 1777856179 | 19.44° C | 57% | 1017.1 hPa | 0 mm | - | 1 W/m² | - |
| 1777855876 | 19.44° C | 56% | 1017 hPa | 0 mm | - | 4 W/m² | - |
| 1777855574 | 20° C | 56% | 1016.8 hPa | 0 mm | - | 6 W/m² | - |
| 1777855271 | 20° C | 55% | 1017 hPa | 0 mm | - | 9 W/m² | - |
| 1777854967 | 20° C | 55% | 1017 hPa | 0 mm | - | 14 W/m² | - |
| 1777854664 | 20° C | 56% | 1017 hPa | 0 mm | - | 19 W/m² | - |
| 1777854361 | 20° C | 56% | 1017 hPa | 0 mm | - | 26 W/m² | - |
| 1777854058 | 20.56° C | 56% | 1016.9 hPa | 0 mm | - | 27 W/m² | - |
| 1777853756 | 20.56° C | 57% | 1016.9 hPa | 0 mm | - | 29 W/m² | - |
| 1777853451 | 20.56° C | 57% | 1017 hPa | 0 mm | - | 31 W/m² | - |
| 1777853149 | 20.56° C | 56% | 1017 hPa | 0 mm | - | 31 W/m² | - |
| 1777852846 | 20.56° C | 55% | 1017.4 hPa | 0 mm | - | 30 W/m² | - |
| 1777852544 | 20.56° C | 54% | 1017.1 hPa | 0 mm | - | 31 W/m² | - |
| 1777852241 | 20.56° C | 55% | 1017.2 hPa | 0 mm | - | 32 W/m² | - |
| 1777851938 | 20.56° C | 54% | 1017.4 hPa | 0 mm | - | 32 W/m² | - |
| 1777851637 | 21.11° C | 54% | 1017.2 hPa | 0 mm | - | 36 W/m² | - |
| 1777851333 | 20.56° C | 54% | 1017.1 hPa | 0 mm | - | 51 W/m² | - |
* Rain latest hour (hover to see other rain measurements)
** Current wind speed in m/s (hover to see current wind gust speed)